Hourly Weather Roundup
Issued by NWS Central Illinois

Home | Current Version | Previous Version | Text Only | Print | Product List | Glossary On
Versions: 1 2 3 4 5 6 7 8 9 10 11 12 13 14 15 16 17 18 19 20 21 22 23 24 25 26 27 28 29 30 31 32 33 34 35 36 37 38 39 40 41 42 43 44 45 46 47 48 49 50
000
NZUS43 KILX 041410
HWRILX

AREA WEATHER ROUNDUP
NATIONAL WEATHER SERVICE, LINCOLN IL
900 AM CDT FRI SEP 04 2015


CITY           SKY/WX    TMP DP  RH WIND       PRES   REMARKS
BLOOMINGTON    SUNNY     79  71  76 SW5       30.03S HX  82
CHAMPAIGN      SUNNY     78  70  76 CALM      30.04R HX  80
DANVILLE       SUNNY     80  70  73 SW5       30.01R HX  83
DECATUR        SUNNY     81  70  69 W5        30.03R HX  84
EFFINGHAM      SUNNY     80  69  70 CALM      30.05S HX  82
FLORA          SUNNY     79  69  71 SW3       30.04S HX  82
GALESBURG      MOSUNNY   78  71  78 CALM      30.01R HX  81
JACKSONVILLE   SUNNY     83  71  67 SW6       30.02R HX  88
LACON          SUNNY     77  71  79 CALM      30.00R
LAWRENCEVILLE  MOSUNNY   80  69  69 CALM      30.04S HX  83
LITCHFIELD     SUNNY     79  70  72 SW3       30.03R HX  82
$$


CITY           SKY/WX    TMP DP  RH WIND       PRES   REMARKS
LINCOLN        SUNNY     81  69  66 CALM      30.00S HX  84
MACOMB         SUNNY     78  70  75 SW3       30.03R HX  81
MATTOON          N/A     81  69  67 W3        30.03S HX  84
MT CARMEL AP   SUNNY     77  68  73 CALM      30.04S
OLNEY-NOBLE AP SUNNY     79  70  73 CALM      30.04S HX  81
PARIS          PTSUNNY   77  72  84 CALM      30.05S
PEORIA         SUNNY     79  70  74 CALM      30.01R HX  82
PONTIAC        PTSUNNY   78  72  80 SW3       30.02R HX  81
RANTOUL        SUNNY     80  71  75 SW6       30.02S HX  83
ROBINSON       SUNNY     79  71  77 CALM      30.05R HX  81
SPRINGFIELD    SUNNY     82  70  66 W3        30.02R HX  86
TAYLORVILLE    MOSUNNY   79  70  73 SW3       30.02S HX  81
$$

...REGIONAL REPORTS...


CITY           SKY/WX    TMP DP  RH WIND       PRES   REMARKS
CHICAGO O`HARE MOSUNNY   72  66  81 NE6       30.02R
KANKAKEE       SUNNY     75  69  80 SE6       30.02S
MOLINE         MOSUNNY   78  69  73 CALM      30.00R HX  80
MOUNT STERLING SUNNY     79  71  75 SW6       30.02R HX  81
MOUNT VERNON   SUNNY     79  70  73 S3        30.05R HX  81
PITTSFIELD     SUNNY     82  70  66 SW6       30.03R HX  86
QUINCY         SUNNY     80  70  71 SW6       30.02R HX  83
ROCKFORD       MOSUNNY   74  66  76 SE6       30.03R
$$


CITY           SKY/WX    TMP DP  RH WIND       PRES   REMARKS
BURLINGTON     SUNNY     78  72  81 SW3       30.00R HX  80
CEDAR RAPIDS   SUNNY     76  72  87 S6        30.00R
DES MOINES     MOSUNNY   77  68  73 S8        29.97R
KIRKSVILLE     SUNNY     78  70  76 SW8       30.03R HX  80
OTTUMWA        SUNNY     76  71  85 S6        29.99R
ST LOUIS       PTSUNNY   84  69  60 W5        30.03R HX  88
$$


CITY           SKY/WX    TMP DP  RH WIND       PRES   REMARKS
TERRE HAUTE    PTSUNNY   79  69  71 W3        30.04S HX  81
EVANSVILLE     SUNNY     80  71  74 CALM      30.04S HX  84
INDIANAPOLIS   PTSUNNY   78  67  68 W6        30.04R HX  80
LAFAYETTE      SUNNY     76  69  79 CALM      30.02R
MADISON        CLOUDY    71  66  84 NE5       30.04R HAZE
MILWAUKEE      CLOUDY    68  64  87 W5        30.02S
$$




USA.gov is the U.S. government's official web portal to all federal, state and local government web resources and services.